| time (UTC) | temp F | wind direction | speed knots | gust knots | rain 1hr in | rain 24hr in | rain mn in | humidity % | barometer mb |
| 20260906232326 | 63 | 329 | 6.1 | 7.8 | 0.00 | 0.01 | 0.01 | 78 | 1016.4 |
| 20260906231821 | 63 | 298 | 5.2 | 7.0 | 0.00 | 0.01 | 0.01 | 80 | 1016.7 |
| 20260906231316 | 63 | 327 | 6.1 | 7.8 | 0.00 | 0.01 | 0.01 | 80 | 1016.3 |
| 20260906230815 | 64 | 287 | 7.8 | 8.7 | 0.00 | 0.01 | 0.01 | 78 | 1016.3 |
| 20260906230310 | 64 | 306 | 5.2 | 7.0 | 0.00 | 0.01 | 0.01 | 75 | 1016.7 |
| 20260906225808 | 64 | 294 | 5.2 | 6.1 | 0.00 | 0.01 | 0.01 | 75 | 1016.6 |
| 20260906225307 | 64 | 300 | 4.3 | 6.1 | 0.00 | 0.01 | 0.01 | 75 | 1016.7 |
| 20260906224759 | 64 | 287 | 4.3 | 5.2 | 0.00 | 0.01 | 0.01 | 74 | 1016.7 |
| 20260906224256 | 64 | 289 | 6.1 | 7.0 | 0.00 | 0.01 | 0.01 | 75 | 1016.7 |
| 20260906223752 | 65 | 305 | 3.5 | 5.2 | 0.00 | 0.01 | 0.01 | 74 | 1016.6 |
| 20260906223248 | 65 | 323 | 5.2 | 6.1 | 0.00 | 0.01 | 0.01 | 74 | 1016.8 |
| 20260906222746 | 64 | 272 | 3.5 | 3.5 | 0.00 | 0.01 | 0.01 | 75 | 1016.8 |
| 20260906222245 | 64 | 297 | 5.2 | 7.8 | 0.00 | 0.01 | 0.01 | 75 | 1016.9 |
| 20260906221743 | 63 | 292 | 4.3 | 5.2 | 0.00 | 0.01 | 0.01 | 76 | 1017.2 |
| 20260906221237 | 63 | 295 | 5.2 | 6.1 | 0.00 | 0.01 | 0.01 | 75 | 1017.1 |
| 20260906220734 | 64 | 273 | 2.6 | 2.6 | 0.00 | 0.01 | 0.01 | 74 | 1016.9 |
| 20260906220228 | 63 | 308 | 3.5 | 5.2 | 0.00 | 0.01 | 0.01 | 75 | 1017.1 |
| 20260906215727 | 63 | 305 | 4.3 | 5.2 | 0.00 | 0.01 | 0.01 | 74 | 1017.0 |
| 20260906215226 | 64 | 305 | 5.2 | 6.1 | 0.00 | 0.01 | 0.01 | 73 | 1017.0 |
| 20260906214725 | 63 | 298 | 4.3 | 5.2 | 0.00 | 0.01 | 0.01 | 74 | 1017.1 |
| 20260906214221 | 64 | 301 | 3.5 | 5.2 | 0.00 | 0.01 | 0.01 | 73 | 1016.9 |
| 20260906213719 | 63 | 312 | 3.5 | 3.5 | 0.00 | 0.01 | 0.01 | 72 | 1017.1 |
| 20260906213213 | 64 | 299 | 4.3 | 6.1 | 0.00 | 0.01 | 0.01 | 74 | 1016.8 |
| 20260906212711 | 63 | 334 | 2.6 | 2.6 | 0.00 | 0.01 | 0.01 | 75 | 1017.0 |
| 20260906212207 | 63 | 331 | 4.3 | 5.2 | 0.00 | 0.01 | 0.01 | 74 | 1017.0 |
| 20260906211701 | 63 | 327 | 2.6 | 2.6 | 0.00 | 0.01 | 0.01 | 75 | 1016.9 |
| 20260906211156 | 63 | 336 | 3.5 | 3.5 | 0.00 | 0.01 | 0.01 | 74 | 1016.9 |
| 20260906210652 | 64 | 354 | 2.6 | 2.6 | 0.00 | 0.01 | 0.01 | 74 | 1017.2 |
| 20260906210152 | 63 | 347 | 0.9 | 0.9 | 0.00 | 0.01 | 0.01 | 76 | 1017.0 |
| 20260906205647 | 63 | 348 | 1.7 | 1.7 | 0.00 | 0.01 | 0.01 | 75 | 1017.1 |
| 20260906205143 | 64 | 19 | 4.3 | 5.2 | 0.00 | 0.01 | 0.01 | 74 | 1016.9 |
| 20260906204642 | 63 | 40 | 2.6 | 3.5 | 0.00 | 0.01 | 0.01 | 76 | 1017.2 |
| 20260906204137 | 63 | 346 | 1.7 | 2.6 | 0.00 | 0.01 | 0.01 | 75 | 1017.1 |
| 20260906203637 | 63 | 355 | 1.7 | 2.6 | 0.00 | 0.01 | 0.01 | 75 | 1017.0 |
| 20260906203138 | 62 | 21 | 2.6 | 3.5 | 0.00 | 0.01 | 0.01 | 76 | 1017.1 |
| 20260906202635 | 62 | 55 | 3.5 | 3.5 | 0.00 | 0.01 | 0.01 | 77 | 1017.2 |
| 20260906202133 | 62 | 10 | 0.9 | 1.7 | 0.00 | 0.01 | 0.01 | 78 | 1017.1 |
| 20260906201629 | 62 | 7 | 2.6 | 2.6 | 0.00 | 0.01 | 0.01 | 77 | 1017.2 |
| 20260906201128 | 62 | 28 | 0.9 | 1.7 | 0.00 | 0.01 | 0.01 | 77 | 1017.1 |
| 20260906200625 | 62 | 53 | 1.7 | 1.7 | 0.00 | 0.01 | 0.01 | 78 | 1017.3 |
| 20260906200120 | 61 | 37 | 1.7 | 1.7 | 0.00 | 0.01 | 0.01 | 79 | 1017.4 |
| 20260906195615 | 61 | 45 | 3.5 | 5.2 | 0.00 | 0.01 | 0.01 | 79 | 1017.3 |
| 20260906195112 | 61 | 55 | 3.5 | 3.5 | 0.00 | 0.01 | 0.01 | 79 | 1017.5 |
| 20260906194607 | 61 | 71 | 2.6 | 2.6 | 0.00 | 0.01 | 0.01 | 78 | 1017.5 |
| 20260906194102 | 61 | 27 | 1.7 | 1.7 | 0.00 | 0.01 | 0.01 | 78 | 1017.5 |
| 20260906193557 | 61 | 56 | 0.9 | 0.9 | 0.00 | 0.01 | 0.01 | 79 | 1017.5 |
| 20260906193053 | 61 | 38 | 2.6 | 2.6 | 0.00 | 0.01 | 0.01 | 79 | 1017.8 |
| 20260906192548 | 61 | 20 | 4.3 | 5.2 | 0.00 | 0.01 | 0.01 | 79 | 1017.5 |
| 20260906192046 | 61 | 51 | 3.5 | 5.2 | 0.00 | 0.01 | 0.01 | 80 | 1017.8 |
| 20260906191542 | 61 | 64 | 2.6 | 2.6 | 0.00 | 0.01 | 0.01 | 80 | 1017.7 |
| 20260906191041 | 60 | 51 | 5.2 | 6.1 | 0.00 | 0.01 | 0.01 | 81 | 1017.9 |
| 20260906190540 | 60 | 46 | 4.3 | 5.2 | 0.00 | 0.01 | 0.01 | 81 | 1018.0 |
| 20260906190035 | 60 | 43 | 5.2 | 6.1 | 0.00 | 0.01 | 0.01 | 82 | 1018.0 |
| 20260906185534 | 60 | 43 | 4.3 | 5.2 | 0.00 | 0.01 | 0.01 | 83 | 1018.1 |
| 20260906185033 | 60 | 40 | 5.2 | 7.0 | 0.00 | 0.01 | 0.01 | 82 | 1017.9 |
| 20260906184528 | 60 | 49 | 7.0 | 7.8 | 0.00 | 0.01 | 0.01 | 83 | 1017.9 |
| 20260906184024 | 60 | 34 | 6.1 | 7.8 | 0.00 | 0.01 | 0.01 | 84 | 1017.9 |
| 20260906183521 | 59 | 47 | 7.8 | 9.6 | 0.00 | 0.01 | 0.01 | 86 | 1017.9 |
| 20260906183016 | 59 | 30 | 7.0 | 8.7 | 0.00 | 0.01 | 0.01 | 86 | 1017.8 |
| 20260906182511 | 59 | 17 | 7.8 | 9.6 | 0.00 | 0.01 | 0.01 | 88 | 1017.8 |
| 20260906182007 | 60 | 21 | 5.2 | 6.1 | 0.00 | 0.01 | 0.01 | 87 | 1018.0 |
| 20260906181503 | 59 | 19 | 5.2 | 6.1 | 0.00 | 0.01 | 0.01 | 87 | 1017.9 |
| 20260906180958 | 59 | 10 | 6.1 | 7.0 | 0.00 | 0.01 | 0.01 | 88 | 1018.0 |
| 20260906180458 | 59 | 30 | 4.3 | 6.1 | 0.00 | 0.01 | 0.01 | 88 | 1018.2 |
| 20260906175956 | 59 | 18 | 5.2 | 7.0 | 0.00 | 0.01 | 0.01 | 88 | 1018.2 |
| 20260906175451 | 59 | 356 | 5.2 | 6.1 | 0.00 | 0.01 | 0.01 | 88 | 1018.5 |
| 20260906174950 | 59 | 343 | 7.0 | 7.0 | 0.00 | 0.01 | 0.01 | 87 | 1018.5 |
| 20260906174449 | 59 | 311 | 4.3 | 5.2 | 0.00 | 0.01 | 0.01 | 87 | 1018.4 |
| 20260906173945 | 59 | 337 | 7.8 | 8.7 | 0.00 | 0.01 | 0.01 | 87 | 1018.4 |
| 20260906173440 | 59 | 338 | 6.1 | 8.7 | 0.00 | 0.01 | 0.01 | 89 | 1018.6 |
| 20260906172939 | 58 | 355 | 6.1 | 7.0 | 0.00 | 0.01 | 0.01 | 89 | 1018.4 |
| 20260906172436 | 58 | 344 | 6.1 | 7.8 | 0.00 | 0.01 | 0.01 | 89 | 1018.4 |
| 20260906171931 | 57 | 351 | 9.6 | 11.3 | 0.00 | 0.01 | 0.01 | 87 | 1018.3 |
| 20260906171431 | 56 | 9 | 9.6 | 11.3 | 0.00 | 0.01 | 0.01 | 89 | 1018.2 |
| 20260906170927 | 56 | 4 | 9.6 | 12.2 | 0.00 | 0.01 | 0.01 | 89 | 1018.5 |
| 20260906170423 | 55 | 331 | 7.0 | 7.8 | 0.00 | 0.01 | 0.01 | 90 | 1019.0 |
| 20260906165919 | 55 | 305 | 8.7 | 9.6 | 0.00 | 0.01 | 0.01 | 90 | 1019.1 |
| 20260906165419 | 55 | 296 | 7.8 | 9.6 | 0.00 | 0.01 | 0.01 | 90 | 1019.2 |
| 20260906164914 | 55 | 298 | 6.1 | 8.7 | 0.00 | 0.01 | 0.01 | 91 | 1019.4 |
| 20260906164412 | 55 | 297 | 9.6 | 11.3 | 0.00 | 0.01 | 0.01 | 90 | 1019.4 |
| 20260906163909 | 55 | 298 | 7.0 | 7.8 | 0.00 | 0.01 | 0.01 | 91 | 1019.4 |
| 20260906163405 | 55 | 277 | 7.0 | 8.7 | 0.00 | 0.01 | 0.01 | 91 | 1019.5 |
| 20260906162902 | 55 | 264 | 5.2 | 7.0 | 0.00 | 0.01 | 0.01 | 91 | 1019.6 |
| 20260906162401 | 55 | 294 | 7.0 | 7.8 | 0.00 | 0.01 | 0.01 | 91 | 1019.4 |
| 20260906161856 | 55 | 300 | 7.0 | 7.0 | 0.00 | 0.01 | 0.01 | 92 | 1019.6 |
| 20260906161355 | 54 | 301 | 7.8 | 9.6 | 0.00 | 0.01 | 0.01 | 91 | 1019.5 |
| 20260906160854 | 54 | 281 | 7.8 | 9.6 | 0.00 | 0.01 | 0.01 | 91 | 1019.6 |
| 20260906160348 | 54 | 296 | 5.2 | 6.1 | 0.00 | 0.01 | 0.01 | 93 | 1019.7 |
| 20260906155846 | 54 | 273 | 6.1 | 7.0 | 0.00 | 0.01 | 0.01 | 92 | 1019.7 |
| 20260906155341 | 54 | 289 | 6.1 | 7.8 | 0.00 | 0.01 | 0.01 | 93 | 1019.6 |
| 20260906154838 | 54 | 295 | 7.8 | 8.7 | 0.00 | 0.01 | 0.01 | 93 | 1019.6 |
| 20260906154332 | 54 | 292 | 9.6 | 11.3 | 0.00 | 0.01 | 0.01 | 93 | 1019.9 |
| 20260906153830 | 54 | 317 | 5.2 | 7.0 | 0.00 | 0.01 | 0.01 | 93 | 1020.0 |
| 20260906153330 | 54 | 286 | 9.6 | 11.3 | 0.00 | 0.01 | 0.01 | 93 | 1020.0 |
| 20260906152825 | 54 | 297 | 7.8 | 11.3 | 0.00 | 0.01 | 0.01 | 93 | 1020.0 |
| 20260906152320 | 54 | 287 | 7.8 | 9.6 | 0.00 | 0.01 | 0.01 | 93 | 1020.1 |
| 20260906151819 | 54 | 287 | 8.7 | 8.7 | 0.07 | 0.01 | 0.01 | 92 | 1020.1 |
| 20260906151315 | 54 | 292 | 6.1 | 8.7 | 0.07 | 0.01 | 0.01 | 92 | 1020.2 |
| 20260906150811 | 54 | 301 | 7.8 | 7.8 | 0.00 | 0.00 | 0.00 | 91 | 1020.2 |
| 20260906150306 | 54 | 313 | 7.0 | 7.8 | 0.00 | 0.00 | 0.00 | 91 | 1020.2 |
| 20260906145805 | 54 | 290 | 9.6 | 12.2 | 0.00 | 0.00 | 0.00 | 90 | 1020.3 |
| 20260906145306 | 54 | 292 | 9.6 | 12.2 | 0.00 | 0.00 | 0.00 | 90 | 1020.3 |
| 20260906144759 | 54 | 299 | 6.1 | 8.7 | 0.00 | 0.00 | 0.00 | 91 | 1020.3 |
| 20260906144253 | 54 | 307 | 9.6 | 11.3 | 0.00 | 0.00 | 0.00 | 90 | 1020.3 |
| 20260906143753 | 55 | 289 | 7.8 | 11.3 | 0.00 | 0.00 | 0.00 | 90 | 1020.5 |
| 20260906143250 | 55 | 303 | 6.1 | 7.0 | 0.00 | 0.00 | 0.00 | 91 | 1020.4 |
| 20260906142750 | 55 | 249 | 6.1 | 7.0 | 0.00 | 0.00 | 0.00 | 90 | 1020.5 |
| 20260906142245 | 56 | 280 | 7.8 | 9.6 | 0.00 | 0.00 | 0.00 | 90 | 1020.5 |
| 20260906141744 | 56 | 273 | 6.1 | 7.8 | 0.00 | 0.00 | 0.00 | 89 | 1020.6 |
| 20260906141239 | 56 | 285 | 5.2 | 7.0 | 0.00 | 0.00 | 0.00 | 89 | 1020.4 |
| 20260906140738 | 57 | 310 | 5.2 | 7.0 | 0.00 | 0.00 | 0.00 | 89 | 1020.1 |
| 20260906140233 | 57 | 281 | 4.3 | 5.2 | 0.00 | 0.00 | 0.00 | 88 | 1020.1 |
| 20260906135730 | 57 | 280 | 2.6 | 2.6 | 0.00 | 0.00 | 0.00 | 89 | 1020.0 |
| 20260906135226 | 57 | 296 | 3.5 | 5.2 | 0.00 | 0.00 | 0.00 | 88 | 1019.7 |
| 20260906134721 | 57 | 277 | 2.6 | 2.6 | 0.00 | 0.00 | 0.00 | 88 | 1019.9 |
| 20260906134217 | 57 | 283 | 2.6 | 2.6 | 0.00 | 0.00 | 0.00 | 86 | 1019.9 |
| 20260906133712 | 57 | 284 | 1.7 | 2.6 | 0.00 | 0.00 | 0.00 | 86 | 1020.0 |
| 20260906133208 | 57 | 289 | 4.3 | 6.1 | 0.00 | 0.00 | 0.00 | 86 | 1020.0 |
| 20260906132703 | 57 | 297 | 3.5 | 3.5 | 0.00 | 0.00 | 0.00 | 86 | 1019.7 |
| 20260906132158 | 57 | 300 | 4.3 | 5.2 | 0.00 | 0.00 | 0.00 | 86 | 1019.6 |
| 20260906131653 | 57 | 327 | 3.5 | 5.2 | 0.00 | 0.00 | 0.00 | 86 | 1019.9 |
| 20260906131148 | 57 | 294 | 4.3 | 5.2 | 0.00 | 0.00 | 0.00 | 85 | 1020.0 |
| 20260906130644 | 57 | 285 | 3.5 | 3.5 | 0.00 | 0.00 | 0.00 | 86 | 1020.2 |
| 20260906130139 | 57 | 294 | 3.5 | 5.2 | 0.00 | 0.00 | 0.00 | 86 | 1020.1 |
| 20260906125636 | 58 | 290 | 6.1 | 7.8 | 0.00 | 0.00 | 0.00 | 85 | 1019.9 |
| 20260906125136 | 58 | 302 | 7.0 | 7.8 | 0.00 | 0.00 | 0.00 | 85 | 1019.9 |
| 20260906124631 | 58 | 295 | 6.1 | 7.0 | 0.00 | 0.00 | 0.00 | 86 | 1019.7 |
| 20260906124126 | 58 | 300 | 6.1 | 7.0 | 0.00 | 0.00 | 0.00 | 87 | 1020.0 |
| 20260906123625 | 58 | 309 | 5.2 | 7.0 | 0.00 | 0.00 | 0.00 | 87 | 1019.9 |
| 20260906123121 | 58 | 312 | 6.1 | 8.7 | 0.00 | 0.00 | 0.00 | 87 | 1020.0 |
| 20260906122620 | 58 | 351 | 7.0 | 7.8 | 0.00 | 0.00 | 0.00 | 87 | 1020.0 |
| 20260906122116 | 58 | 355 | 7.0 | 7.8 | 0.00 | 0.00 | 0.00 | 87 | 1019.9 |
| 20260906121612 | 58 | 2 | 7.0 | 7.8 | 0.00 | 0.00 | 0.00 | 87 | 1019.7 |
| 20260906121108 | 58 | 354 | 11.3 | 12.2 | 0.00 | 0.00 | 0.00 | 87 | 1019.6 |
| 20260906120603 | 58 | 358 | 8.7 | 9.6 | 0.00 | 0.00 | 0.00 | 87 | 1019.2 |
| 20260906120100 | 58 | 340 | 12.2 | 13.9 | 0.00 | 0.00 | 0.00 | 86 | 1019.3 |
| 20260906115555 | 58 | 359 | 9.6 | 11.3 | 0.00 | 0.00 | 0.00 | 86 | 1019.2 |
| 20260906115050 | 58 | 0 | 8.7 | 11.3 | 0.00 | 0.00 | 0.00 | 86 | 1019.1 |
| 20260906114549 | 58 | 355 | 9.6 | 11.3 | 0.00 | 0.00 | 0.00 | 86 | 1019.2 |
| 20260906114045 | 58 | 0 | 9.6 | 9.6 | 0.00 | 0.00 | 0.00 | 85 | 1019.5 |
| 20260906113544 | 58 | 9 | 8.7 | 9.6 | 0.00 | 0.00 | 0.00 | 85 | 1019.6 |
| 20260906113039 | 59 | 357 | 5.2 | 6.1 | 0.00 | 0.00 | 0.00 | 85 | 1019.6 |
| 20260906112534 | 59 | 338 | 7.8 | 8.7 | 0.00 | 0.00 | 0.00 | 83 | 1019.7 |
| 20260906112030 | 59 | 345 | 7.0 | 7.8 | 0.00 | 0.00 | 0.00 | 84 | 1019.7 |
| 20260906111524 | 58 | 346 | 7.0 | 7.8 | 0.00 | 0.00 | 0.00 | 84 | 1019.7 |
| 20260906111020 | 58 | 347 | 7.0 | 7.8 | 0.00 | 0.00 | 0.00 | 84 | 1019.9 |
| 20260906110519 | 58 | 346 | 7.0 | 7.8 | 0.00 | 0.00 | 0.00 | 84 | 1019.9 |
| 20260906110019 | 59 | 351 | 7.8 | 7.8 | 0.00 | 0.00 | 0.00 | 83 | 1019.9 |
| 20260906105514 | 59 | 338 | 7.0 | 7.8 | 0.00 | 0.00 | 0.00 | 83 | 1019.9 |
| 20260906105010 | 58 | 349 | 7.0 | 8.7 | 0.00 | 0.00 | 0.00 | 83 | 1020.0 |
| 20260906104509 | 58 | 324 | 6.1 | 7.0 | 0.00 | 0.00 | 0.00 | 83 | 1020.0 |
| 20260906104009 | 58 | 318 | 5.2 | 6.1 | 0.00 | 0.00 | 0.00 | 84 | 1020.1 |
| 20260906103507 | 58 | 336 | 8.7 | 9.6 | 0.00 | 0.00 | 0.00 | 84 | 1019.9 |
| 20260906103002 | 58 | 344 | 9.6 | 9.6 | 0.00 | 0.00 | 0.00 | 85 | 1020.1 |
| 20260906102457 | 58 | 356 | 5.2 | 6.1 | 0.00 | 0.00 | 0.00 | 85 | 1020.1 |
| 20260906101956 | 58 | 333 | 7.0 | 7.8 | 0.00 | 0.00 | 0.00 | 85 | 1020.2 |
| 20260906101452 | 58 | 349 | 5.2 | 6.1 | 0.00 | 0.00 | 0.00 | 86 | 1020.1 |
| 20260906100947 | 58 | 345 | 6.1 | 7.0 | 0.00 | 0.00 | 0.00 | 86 | 1020.0 |
| 20260906100442 | 58 | 341 | 6.1 | 7.8 | 0.00 | 0.00 | 0.00 | 86 | 1019.7 |
| 20260906095942 | 58 | 332 | 6.1 | 7.0 | 0.00 | 0.00 | 0.00 | 86 | 1020.1 |
| 20260906095437 | 58 | 335 | 9.6 | 12.2 | 0.00 | 0.00 | 0.00 | 86 | 1019.7 |
| 20260906094932 | 58 | 339 | 7.8 | 9.6 | 0.00 | 0.00 | 0.00 | 87 | 1019.7 |
| 20260906094426 | 58 | 339 | 7.0 | 7.8 | 0.00 | 0.00 | 0.00 | 87 | 1019.9 |
| 20260906093922 | 57 | 346 | 6.1 | 7.0 | 0.00 | 0.00 | 0.00 | 88 | 1020.0 |
| 20260906093419 | 57 | 326 | 6.1 | 7.8 | 0.00 | 0.00 | 0.00 | 88 | 1020.0 |
| 20260906092918 | 57 | 339 | 7.8 | 8.7 | 0.00 | 0.00 | 0.00 | 87 | 1019.9 |
| 20260906092418 | 57 | 1 | 7.0 | 7.8 | 0.00 | 0.00 | 0.00 | 87 | 1019.7 |
| 20260906091914 | 57 | 329 | 7.0 | 7.8 | 0.00 | 0.00 | 0.00 | 90 | 1019.7 |
| 20260906091409 | 57 | 330 | 5.2 | 6.1 | 0.00 | 0.00 | 0.00 | 90 | 1019.6 |
| 20260906090906 | 57 | 331 | 8.7 | 9.6 | 0.00 | 0.00 | 0.00 | 89 | 1019.6 |
| 20260906090405 | 57 | 319 | 10.4 | 13.0 | 0.00 | 0.00 | 0.00 | 89 | 1020.1 |
| 20260906085900 | 56 | 323 | 7.0 | 7.8 | 0.00 | 0.00 | 0.00 | 89 | 1019.7 |
| 20260906085359 | 56 | 316 | 9.6 | 11.3 | 0.00 | 0.00 | 0.00 | 89 | 1019.7 |
| 20260906084859 | 57 | 323 | 7.8 | 9.6 | 0.00 | 0.00 | 0.00 | 88 | 1020.2 |
| 20260906084354 | 57 | 331 | 9.6 | 11.3 | 0.00 | 0.00 | 0.00 | 88 | 1019.9 |
| 20260906083848 | 57 | 338 | 7.8 | 11.3 | 0.00 | 0.00 | 0.00 | 88 | 1020.2 |
| 20260906083344 | 56 | 315 | 8.7 | 11.3 | 0.00 | 0.00 | 0.00 | 88 | 1020.2 |
| 20260906082843 | 56 | 293 | 9.6 | 11.3 | 0.00 | 0.00 | 0.00 | 89 | 1020.4 |
| 20260906082338 | 56 | 306 | 7.0 | 7.8 | 0.00 | 0.00 | 0.00 | 89 | 1020.5 |
| 20260906081834 | 56 | 294 | 8.7 | 9.6 | 0.00 | 0.00 | 0.00 | 89 | 1020.5 |
| 20260906081330 | 57 | 316 | 7.8 | 9.6 | 0.00 | 0.00 | 0.00 | 88 | 1020.7 |
| 20260906080826 | 57 | 291 | 7.8 | 11.3 | 0.00 | 0.00 | 0.00 | 88 | 1020.9 |
| 20260906080322 | 57 | 295 | 7.8 | 9.6 | 0.00 | 0.00 | 0.00 | 87 | 1020.9 |
| 20260906075822 | 57 | 269 | 6.1 | 7.0 | 0.00 | 0.00 | 0.00 | 87 | 1020.9 |
| 20260906075321 | 57 | 302 | 7.0 | 7.0 | 0.00 | 0.00 | 0.00 | 87 | 1021.1 |
| 20260906074817 | 57 | 289 | 4.3 | 5.2 | 0.00 | 0.00 | 0.00 | 88 | 1020.8 |
| 20260906074316 | 57 | 284 | 2.6 | 2.6 | 0.00 | 0.00 | 0.00 | 87 | 1021.1 |
| 20260906073815 | 57 | 273 | 3.5 | 3.5 | 0.00 | 0.00 | 0.00 | 86 | 1021.3 |
| 20260906073310 | 57 | 281 | 3.5 | 3.5 | 0.00 | 0.00 | 0.00 | 87 | 1021.2 |
| 20260906072807 | 57 | 266 | 3.5 | 3.5 | 0.00 | 0.00 | 0.00 | 87 | 1021.3 |
| 20260906072305 | 57 | 291 | 3.5 | 5.2 | 0.00 | 0.00 | 0.00 | 87 | 1021.3 |
| 20260906071758 | 57 | 290 | 5.2 | 6.1 | 0.00 | 0.00 | 0.00 | 87 | 1021.3 |
| 20260906071258 | 57 | 309 | 7.0 | 7.0 | 0.00 | 0.00 | 0.00 | 87 | 1020.8 |
| 20260906070754 | 57 | 323 | 6.1 | 7.0 | 0.00 | 0.00 | 0.00 | 87 | 1021.1 |
| 20260906070250 | 57 | 280 | 7.8 | 8.7 | 0.00 | 0.00 | 0.00 | 86 | 1021.1 |
| 20260906065749 | 57 | 317 | 8.7 | 9.6 | 0.00 | 0.00 | 0.00 | 86 | 1021.2 |
| 20260906065245 | 57 | 320 | 7.8 | 11.3 | 0.00 | 0.00 | 0.00 | 85 | 1021.2 |
| 20260906064741 | 57 | 310 | 9.6 | 11.3 | 0.00 | 0.00 | 0.00 | 86 | 1021.1 |
| 20260906064236 | 57 | 312 | 9.6 | 9.6 | 0.00 | 0.00 | 0.00 | 85 | 1021.2 |
| 20260906063731 | 57 | 320 | 9.6 | 11.3 | 0.00 | 0.00 | 0.00 | 85 | 1021.3 |
| 20260906063227 | 57 | 305 | 7.8 | 9.6 | 0.00 | 0.00 | 0.00 | 84 | 1021.2 |
| 20260906062722 | 58 | 322 | 5.2 | 6.1 | 0.00 | 0.00 | 0.00 | 83 | 1021.4 |
| 20260906062221 | 58 | 324 | 9.6 | 11.3 | 0.00 | 0.00 | 0.00 | 82 | 1021.3 |
| 20260906061717 | 57 | 294 | 8.7 | 9.6 | 0.00 | 0.00 | 0.00 | 83 | 1021.4 |
| 20260906061213 | 57 | 311 | 10.4 | 12.2 | 0.00 | 0.00 | 0.00 | 83 | 1021.6 |
| 20260906060708 | 57 | 308 | 7.8 | 8.7 | 0.00 | 0.00 | 0.00 | 84 | 1021.6 |
| 20260906060206 | 57 | 313 | 8.7 | 9.6 | 0.00 | 0.00 | 0.00 | 86 | 1021.9 |
| 20260906055700 | 57 | 280 | 10.4 | 13.0 | 0.00 | 0.15 | 0.15 | 86 | 1021.6 |
| 20260906055156 | 57 | 289 | 9.6 | 11.3 | 0.00 | 0.15 | 0.15 | 86 | 1021.6 |
| 20260906054652 | 57 | 287 | 9.6 | 13.0 | 0.00 | 0.15 | 0.15 | 86 | 1021.6 |
| 20260906054151 | 57 | 290 | 8.7 | 9.6 | 0.00 | 0.15 | 0.15 | 86 | 1021.5 |
| 20260906053648 | 57 | 287 | 9.6 | 11.3 | 0.00 | 0.15 | 0.15 | 86 | 1021.6 |
| 20260906053143 | 57 | 296 | 6.1 | 7.0 | 0.00 | 0.15 | 0.15 | 87 | 1021.5 |
| 20260906052638 | 57 | 295 | 7.8 | 7.8 | 0.00 | 0.15 | 0.15 | 87 | 1021.7 |
| 20260906052135 | 56 | 287 | 6.1 | 7.0 | 0.00 | 0.15 | 0.15 | 87 | 1021.6 |
| 20260906051631 | 57 | 290 | 6.1 | 7.8 | 0.00 | 0.15 | 0.15 | 87 | 1021.3 |
| 20260906051131 | 57 | 313 | 7.8 | 8.7 | 0.00 | 0.15 | 0.15 | 87 | 1020.9 |
| 20260906050627 | 57 | 317 | 10.4 | 12.2 | 0.00 | 0.15 | 0.15 | 87 | 1020.8 |
| 20260906050122 | 57 | 311 | 7.8 | 8.7 | 0.00 | 0.15 | 0.15 | 87 | 1020.7 |
| 20260906045620 | 57 | 315 | 7.8 | 9.6 | 0.00 | 0.15 | 0.15 | 87 | 1020.8 |
| 20260906045115 | 57 | 285 | 7.0 | 7.8 | 0.00 | 0.15 | 0.15 | 86 | 1020.9 |
| 20260906044611 | 57 | 309 | 7.8 | 9.6 | 0.00 | 0.15 | 0.15 | 87 | 1020.9 |
| 20260906044106 | 57 | 307 | 7.8 | 11.3 | 0.00 | 0.15 | 0.15 | 88 | 1020.7 |
| 20260906043603 | 57 | 299 | 8.7 | 9.6 | 0.00 | 0.15 | 0.15 | 87 | 1020.9 |
| 20260906043058 | 57 | 300 | 7.0 | 8.7 | 0.00 | 0.15 | 0.15 | 87 | 1020.9 |
| 20260906042557 | 57 | 312 | 6.1 | 7.8 | 0.00 | 0.15 | 0.15 | 87 | 1020.6 |
| 20260906042052 | 57 | 298 | 7.8 | 8.7 | 0.00 | 0.15 | 0.15 | 87 | 1020.8 |
| 20260906041548 | 58 | 310 | 7.0 | 8.7 | 0.00 | 0.15 | 0.15 | 86 | 1020.9 |
| 20260906041043 | 58 | 273 | 4.3 | 6.1 | 0.00 | 0.15 | 0.15 | 84 | 1021.5 |
| 20260906040538 | 58 | 300 | 9.6 | 12.2 | 0.00 | 0.15 | 0.15 | 84 | 1020.3 |
| 20260906040033 | 58 | 295 | 7.0 | 8.7 | 0.00 | 0.15 | 0.15 | 85 | 1020.3 |
| 20260906035528 | 58 | 309 | 7.0 | 7.8 | 0.00 | 0.15 | 0.15 | 84 | 1020.1 |
| 20260906035025 | 58 | 305 | 7.0 | 8.7 | 0.00 | 0.15 | 0.15 | 85 | 1019.7 |
| 20260906034524 | 58 | 324 | 7.8 | 9.6 | 0.00 | 0.15 | 0.15 | 84 | 1019.9 |
| 20260906034019 | 58 | 326 | 7.8 | 8.7 | 0.00 | 0.15 | 0.15 | 84 | 1019.6 |
| 20260906033514 | 58 | 342 | 8.7 | 9.6 | 0.00 | 0.15 | 0.15 | 81 | 1020.0 |
| 20260906033010 | 58 | 326 | 7.0 | 7.0 | 0.00 | 0.15 | 0.15 | 80 | 1020.0 |
| 20260906032507 | 58 | 325 | 6.1 | 7.8 | 0.00 | 0.15 | 0.15 | 81 | 1020.0 |
| 20260906032007 | 58 | 309 | 6.1 | 7.8 | 0.00 | 0.15 | 0.15 | 81 | 1020.1 |
| 20260906031502 | 58 | 332 | 7.0 | 8.7 | 0.00 | 0.15 | 0.15 | 80 | 1020.3 |
| 20260906030957 | 59 | 323 | 8.7 | 8.7 | 0.00 | 0.15 | 0.15 | 78 | 1020.2 |
| 20260906030452 | 59 | 349 | 8.7 | 9.6 | 0.00 | 0.15 | 0.15 | 78 | 1020.1 |
| 20260906025946 | 59 | 319 | 6.1 | 7.8 | 0.42 | 0.15 | 0.15 | 77 | 1020.4 |
| 20260906025446 | 59 | 331 | 12.2 | 14.8 | 0.47 | 0.15 | 0.15 | 76 | 1020.1 |
| 20260906024944 | 63 | 351 | 9.6 | 9.6 | 0.17 | 0.10 | 0.10 | 71 | 1020.2 |
| 20260906024444 | 63 | 262 | 4.3 | 5.2 | 0.00 | 0.07 | 0.07 | 66 | 1021.9 |
| 20260906023939 | 63 | 236 | 4.3 | 6.1 | 0.00 | 0.07 | 0.07 | 63 | 1021.2 |
| 20260906023436 | 63 | 295 | 6.1 | 8.7 | 0.00 | 0.07 | 0.07 | 62 | 1019.5 |
| 20260906022935 | 63 | 2 | 11.3 | 13.0 | 0.00 | 0.07 | 0.07 | 62 | 1018.3 |
| 20260906022431 | 63 | 357 | 11.3 | 13.0 | 0.00 | 0.07 | 0.07 | 61 | 1018.3 |
| 20260906021926 | 63 | 337 | 7.8 | 8.7 | 0.00 | 0.07 | 0.07 | 64 | 1018.4 |
| 20260906021421 | 63 | 330 | 7.0 | 7.8 | 0.00 | 0.07 | 0.07 | 65 | 1018.4 |
| 20260906020920 | 63 | 327 | 7.8 | 8.7 | 0.00 | 0.07 | 0.07 | 63 | 1018.5 |
| 20260906020415 | 64 | 330 | 7.0 | 7.8 | 0.00 | 0.07 | 0.07 | 61 | 1018.5 |
| 20260906015909 | 64 | 331 | 6.1 | 7.0 | 0.00 | 0.07 | 0.07 | 61 | 1018.6 |
| 20260906015409 | 64 | 334 | 5.2 | 7.0 | 0.00 | 0.07 | 0.07 | 60 | 1018.5 |
| 20260906014903 | 65 | 324 | 9.6 | 12.2 | 0.00 | 0.07 | 0.07 | 58 | 1018.6 |
| 20260906014402 | 65 | 342 | 7.8 | 9.6 | 0.00 | 0.07 | 0.07 | 58 | 1018.5 |
| 20260906013859 | 65 | 335 | 6.1 | 7.8 | 0.00 | 0.07 | 0.07 | 57 | 1018.4 |
| 20260906013354 | 66 | 353 | 7.0 | 7.8 | 0.00 | 0.07 | 0.07 | 56 | 1018.5 |
| 20260906012849 | 66 | 357 | 9.6 | 11.3 | 0.00 | 0.07 | 0.07 | 57 | 1018.4 |
| 20260906012344 | 66 | 317 | 8.7 | 9.6 | 0.00 | 0.07 | 0.07 | 59 | 1018.8 |
| 20260906011844 | 66 | 321 | 5.2 | 7.0 | 0.00 | 0.07 | 0.07 | 59 | 1018.8 |
| 20260906011339 | 66 | 316 | 7.8 | 9.6 | 0.00 | 0.07 | 0.07 | 59 | 1018.5 |
| 20260906010835 | 66 | 321 | 7.8 | 9.6 | 0.00 | 0.07 | 0.07 | 58 | 1018.6 |
| 20260906010331 | 67 | 310 | 8.7 | 9.6 | 0.00 | 0.07 | 0.07 | 57 | 1018.9 |
| 20260906005826 | 67 | 310 | 7.0 | 8.7 | 0.00 | 0.07 | 0.07 | 56 | 1018.8 |
| 20260906005325 | 68 | 308 | 8.7 | 11.3 | 0.00 | 0.07 | 0.07 | 54 | 1018.5 |
| 20260906004824 | 68 | 315 | 11.3 | 13.9 | 0.00 | 0.07 | 0.07 | 53 | 1018.6 |
| 20260906004324 | 69 | 311 | 9.6 | 11.3 | 0.00 | 0.07 | 0.07 | 52 | 1018.8 |
| 20260906003819 | 70 | 316 | 11.3 | 13.0 | 0.00 | 0.07 | 0.07 | 50 | 1018.9 |
| 20260906003314 | 70 | 318 | 9.6 | 12.2 | 0.00 | 0.07 | 0.07 | 50 | 1018.8 |
| 20260906002810 | 69 | 313 | 11.3 | 12.2 | 0.00 | 0.07 | 0.07 | 51 | 1018.8 |
| 20260906002309 | 70 | 303 | 14.8 | 14.8 | 0.00 | 0.07 | 0.07 | 50 | 1018.8 |
| 20260906001805 | 71 | 297 | 9.6 | 11.3 | 0.00 | 0.07 | 0.07 | 50 | 1018.8 |
| 20260906001300 | 71 | 321 | 7.8 | 8.7 | 0.00 | 0.07 | 0.07 | 48 | 1018.9 |
| 20260906000755 | 71 | 301 | 11.3 | 13.0 | 0.00 | 0.07 | 0.07 | 46 | 1018.8 |
| 20260906000249 | 72 | 295 | 8.7 | 9.6 | 0.00 | 0.07 | 0.07 | 46 | 1018.9 |
| 20260905235744 | 72 | 314 | 11.3 | 13.9 | 0.00 | 0.07 | 0.07 | 45 | 1018.6 |
| 20260905235244 | 73 | 301 | 8.7 | 9.6 | 0.00 | 0.07 | 0.07 | 44 | 1018.9 |
| 20260905234740 | 74 | 315 | 7.0 | 8.7 | 0.00 | 0.07 | 0.07 | 42 | 1018.8 |
| 20260905234235 | 73 | 313 | 7.8 | 8.7 | 0.00 | 0.07 | 0.07 | 42 | 1019.0 |
| 20260905233731 | 72 | 267 | 5.2 | 6.1 | 0.00 | 0.07 | 0.07 | 44 | 1018.9 |
| 20260905233230 | 71 | 306 | 8.7 | 8.7 | 0.00 | 0.07 | 0.07 | 44 | 1018.9 |